Regional Weather Roundup
Issued by NWS Cleveland, OH

Home | Current Version | Previous Version | Text Only | Print | Product List | Glossary On
Versions: 1 2 3 4 5 6 7 8 9 10 11 12 13 14 15 16 17 18 19 20 21 22 23 24 25 26 27 28 29 30 31 32 33 34 35 36 37 38 39 40 41 42 43 44 45 46 47 48 49 50
000
ASUS41 KCLE 271112
RWRCLE
OHIO REGIONAL WEATHER ROUNDUP
NATIONAL WEATHER SERVICE WILMINGTON, OH
700 AM EDT TUE JUN 27 2017

NOTE: "FAIR" INDICATES FEW OR NO CLOUDS BELOW 12,000 FEET WITH NO
SIGNIFICANT WEATHER AND/OR OBSTRUCTIONS TO VISIBILITY.

OHZ001>008-015>018-024>027-034-035-043-044-271200-
   NORTHWEST OHIO

CITY           SKY/WX    TMP DP  RH WIND       PRES   REMARKS
DEFIANCE       FAIR      51  47  86 VRB3      30.09R
FINDLAY        FAIR      53  47  79 W7        30.07R
TOLEDO EXPRESS FAIR      50  48  93 W8        30.06R
TOLEDO EXEC    FAIR      53  49  86 W8        30.07R
LIMA           FAIR      52  49  89 SW5       30.09R
$$

OHZ009>014-019>023-028>033-038-089-271200-
   NORTHEAST OHIO

CITY           SKY/WX    TMP DP  RH WIND       PRES   REMARKS
CLE-HOPKINS    MOCLDY    55  50  83 SW8       30.05R
CLE-LAKEFRONT  MOCLDY    60  47  61 W16       30.01R
CUY CO. ARPT   PTSUNNY   59  48  67 NW9       30.02
LORAIN-ELYRIA  FAIR      51  43  74 W9        30.04S
ASHTABULA      FAIR      52  51  97 SW7       30.01R
AKRON-CANTON   FAIR      53  47  79 W9        30.04R
WOOSTER        FAIR      52  48  86 W7        30.06R
MANSFIELD      FAIR      51  49  92 W6        30.07R
YOUNGSTOWN     FAIR      53  50  89 W9        30.02S
$$

OHZ042-051>053-060>062-070>072-077>081-271200-
  SOUTHWEST OHIO

CITY           SKY/WX    TMP DP  RH WIND       PRES   REMARKS
CINC-COVINGTON FAIR      54  50  86 W3        30.13R
CINC-LUNKEN    FAIR      53  52  96 CALM      30.14R
HAMILTON       FAIR      51  51 100 CALM      30.14R
DAYTON         FAIR      53  50  89 W7        30.12R
WRIGHT-PAT AFB PTCLDY    50  50 100 S5        30.11R
DAYTON GENERAL FAIR      53  49  86 W3        30.11R
WILMINGTON     FAIR      54  51  90 W6        30.12R
$$

OHZ036-037-039>041-045>050-054>059-063>069-073>076-082>088-271200-
  CENTRAL AND SOUTHEAST OHIO

CITY           SKY/WX    TMP DP  RH WIND       PRES   REMARKS
COLUMBUS       FAIR      54  52  93 W3        30.09R
OSU AIRPORT    FAIR      51  50  96 W5        30.09R
BOLTON FIELD   NOT AVBL
RICKENBACK AFB FAIR      51  50  95 SW3       30.09R
NEWARK         FAIR      53  50  89 SW3       30.08R
MARION         FAIR      52  48  86 W3        30.09R
LANCASTER      FAIR      53  51  93 W5        30.10R
ZANESVILLE     FAIR      53  51  93 SW3       30.08R
NEW PHILLY     FAIR      54  51  90 CALM      30.07R
$$




USA.gov is the U.S. government's official web portal to all federal, state and local government web resources and services.